Dewpoint
62 62 62 62 62 62 60 60 61 61 61 61 61 60 60 59 60 59 59 58 57 58 58 58 58 57 56 57 58 57 58 58 58 59 59 59 59 58 56 57 57 58 59 60 62 63 63 63 63 64 63 63 63 63 63 63 63 63 63 63 63 63 63 63 63 63 63 63 62 63 62 62 63 63 62 63 62 63 64 63 63 64 63 62 62
62 62 62 62 62 62 61 60 60 60 61 61 60 60 60 60 60 60 59 58 57 58 58 58 58 58 57 57 58 57 58 58 58 58 59 59 59 59 56 56 57 58 58 59 61 62 62 63 63 63 63 63 63 63 63 63 63 63 63 63 63 63 62 62 62 62 63 63 62 62 62 62 62 62 61 62 62 63 62 63 64 63 63 62 63
61 62 62 62 62 61 61 61 60 60 60 60 61 61 60 59 60 59 59 58 58 58 58 57 58 58 58 59 59 58 58 58 58 59 58 59 59 59 59 56 57 57 57 59 59 60 61 61 62 63 63 63 63 63 63 62 63 63 63 63 63 63 63 63 62 61 61 62 63 63 62 61 61 61 62 62 62 62 62 62 63 63 63 62 62
63 63 63 62 61 60 60 60 60 60 60 60 60 61 61 60 61 61 61 59 58 58 59 57 57 56 58 58 58 58 57 58 58 58 59 59 59 58 57 58 56 57 57 57 58 59 59 60 61 62 62 62 62 62 62 62 62 62 62 62 62 62 62 62 61 61 62 61 61 60 60 61 60 60 60 61 61 61 62 62 62 62 62 62 61
62 63 63 62 61 61 60 60 60 60 60 62 62 62 60 60 60 60 59 59 58 58 59 57 55 56 58 58 58 58 58 59 59 58 58 59 58 57 57 57 57 56 55 56 57 57 58 59 60 60 60 61 61 61 62 62 61 60 61 61 62 62 62 61 61 61 61 61 61 60 60 60 60 60 60 60 60 60 60 60 60 61 61 61 62
62 63 63 62 62 62 61 60 60 61 61 61 59 57 56 57 58 57 56 57 56 56 54 54 55 56 57 57 58 58 58 59 58 58 59 58 57 57 56 56 56 57 58 56 56 56 56 58 59 59 59 59 60 61 61 61 61 60 61 61 61 61 61 60 61 61 61 60 60 60 60 59 59 60 59 60 60 60 61 60 61 61 61 60 61
63 62 62 62 61 59 58 58 59 61 60 59 59 58 58 58 56 56 56 55 55 57 56 55 56 57 57 57 58 58 59 58 59 59 58 58 57 57 57 56 56 56 56 55 53 54 55 56 58 57 57 58 59 60 61 60 60 60 60 61 60 60 59 60 60 61 60 60 59 56 56 56 57 58 57 57 57 57 57 57 57 59 60 60 60
63 63 61 61 60 59 58 59 60 59 59 59 59 58 57 59 59 59 56 57 56 56 56 57 57 57 58 58 59 59 58 58 58 58 58 57 57 57 56 56 56 55 54 54 53 54 54 55 56 56 56 57 58 59 59 59 59 59 59 60 60 58 58 57 57 59 57 57 56 56 56 56 58 57 56 55 56 56 57 57 57 58 58 58 59
63 63 62 62 61 61 60 60 60 59 59 58 57 58 58 59 57 58 58 56 57 58 58 57 57 58 58 59 60 60 59 58 57 57 58 57 57 56 56 56 56 53 53 53 53 52 53 54 55 55 54 55 57 57 58 58 59 59 58 56 55 56 55 55 55 56 55 55 55 55 55 55 54 55 54 54 55 56 56 56 56 56 57 57 57
63 63 62 62 62 62 62 61 61 60 59 59 57 58 59 59 57 58 58 57 56 57 57 57 59 59 59 59 59 58 58 58 57 55 55 56 56 56 55 55 55 55 51 52 51 50 51 51 52 52 52 54 55 56 57 57 58 58 56 52 53 53 53 53 54 54 54 54 54 54 54 54 52 51 51 52 52 52 52 53 55 56 56 56 57
63 63 62 62 61 61 62 62 61 60 60 59 59 60 60 60 60 58 59 59 59 59 59 59 59 59 59 57 58 58 57 57 57 55 55 56 56 55 56 54 54 52 51 49 47 49 49 50 48 49 50 52 54 54 55 55 56 57 56 54 54 54 55 54 54 54 54 52 51 50 49 49 50 50 51 51 51 51 52 52 52 52 54 55 55
63 63 63 62 62 62 62 62 61 60 60 60 59 59 60 60 60 60 60 60 59 59 59 59 58 58 57 57 57 57 56 56 56 55 53 56 55 53 51 53 50 49 49 47 47 48 48 50 48 47 48 50 52 53 53 53 53 57 56 55 55 56 56 55 53 49 48 48 49 50 51 52 53 53 53 53 52 53 53 53 53 53 53 53 54
63 63 63 61 62 62 62 62 62 61 60 60 60 61 61 60 59 59 60 59 59 60 60 59 57 56 55 56 55 55 56 56 55 54 53 55 54 52 51 50 48 48 47 47 49 49 47 48 47 47 47 47 45 49 51 52 52 55 55 54 53 52 49 47 48 50 50 50 51 51 51 52 52 52 52 52 53 52 53 53 54 54 54 53 53
63 63 63 63 62 62 62 62 62 61 61 61 62 60 61 61 60 60 60 60 59 59 59 58 56 55 53 53 53 53 53 54 55 51 53 56 54 51 50 48 47 46 45 46 44 45 46 46 47 47 46 44 44 44 45 45 49 52 52 47 47 48 49 50 49 49 49 49 50 50 50 51 51 51 52 52 53 53 53 53 53 53 53 53 54
64 63 63 63 62 62 62 61 62 61 61 61 61 61 61 61 61 60 60 59 59 59 58 58 54 55 55 52 50 49 52 54 54 52 51 54 51 50 49 48 48 48 47 42 40 43 45 45 48 47 45 44 43 43 44 45 48 49 47 42 44 48 48 49 50 51 50 50 50 51 51 51 51 51 52 54 53 54 54 54 54 54 54 54 54
63 64 63 62 62 61 61 61 61 62 62 61 61 61 60 60 60 60 60 59 58 58 58 58 57 55 49 50 48 50 46 51 49 49 52 52 50 49 48 47 45 41 41 39 41 43 42 45 46 45 44 44 44 44 46 46 47 43 42 39 43 45 48 51 51 51 50 51 50 50 51 50 51 52 52 53 53 54 54 54 54 54 54 54 54
63 63 62 61 62 62 62 61 61 62 61 60 60 61 61 60 60 60 59 58 58 57 57 57 57 56 52 49 48 48 46 48 48 48 47 45 48 46 46 45 38 36 35 38 41 42 41 43 45 44 44 43 46 48 47 46 42 39 32 36 41 43 46 49 50 50 51 51 51 50 51 51 51 52 53 53 53 54 54 53 54 54 54 54 54
63 63 63 62 63 63 63 62 62 62 62 61 62 62 61 61 61 60 59 60 58 57 56 56 56 56 55 52 54 51 49 49 48 39 43 46 42 40 42 42 34 36 36 36 38 39 38 40 42 41 43 45 47 46 45 42 36 32 30 36 42 42 44 45 48 50 51 51 51 52 52 52 51 51 52 53 53 53 53 53 53 52 53 53 53
64 63 64 64 63 63 62 61 62 62 62 62 62 62 62 61 61 60 60 59 58 57 56 55 55 55 54 54 54 53 53 49 46 45 36 36 40 36 36 40 35 35 34 33 35 36 36 37 39 38 38 45 46 43 41 37 35 32 36 40 41 41 42 43 44 46 48 48 49 51 51 51 51 50 50 51 51 51 51 52 52 52 51 52 52
64 63 63 63 63 63 62 63 62 62 62 62 61 61 60 60 60 60 59 59 58 56 55 55 53 53 53 51 52 52 52 52 51 45 36 29 29 38 43 41 35 32 31 32 34 34 35 36 38 38 38 45 44 40 37 33 29 30 31 39 41 40 41 42 41 42 43 45 48 49 50 50 51 50 50 50 50 50 50 50 50 50 50 51 51
64 64 64 64 63 63 63 63 63 62 61 61 61 60 60 59 59 58 58 57 56 55 54 53 52 49 50 50 50 48 47 47 49 47 39 38 33 33 32 34 35 36 28 32 32 32 35 36 35 36 39 42 42 38 32 29 24 29 32 36 39 40 41 41 40 41 41 42 44 45 47 49 49 50 50 50 49 49 49 49 49 49 50 50 50
63 63 63 63 63 63 62 62 61 60 59 60 59 59 59 59 58 57 57 56 55 55 54 52 51 50 49 49 48 46 47 46 45 41 41 38 27 27 31 31 24 23 31 27 29 31 33 33 33 35 40 41 37 33 29 25 25 31 31 34 36 38 40 40 40 40 40 40 41 42 44 46 48 48 49 48 48 48 48 48 48 49 49 49 50
62 62 62 62 62 62 62 61 60 58 58 59 58 58 57 57 56 56 56 55 54 54 53 52 51 50 49 48 47 45 44 42 41 41 36 33 34 32 31 31 26 28 33 29 28 30 33 33 32 36 38 39 34 30 26 25 28 33 35 32 34 35 37 38 38 39 39 40 40 41 41 42 43 45 46 47 47 48 48 48 48 48 48 48 49
60 60 61 62 61 60 60 59 58 58 58 57 57 56 55 55 55 55 54 54 54 51 51 51 51 49 48 46 46 46 44 41 40 38 36 30 29 26 28 25 27 29 31 26 29 31 30 30 28 35 38 33 31 28 24 26 26 34 31 30 32 34 35 36 38 38 39 39 39 40 40 41 41 41 43 44 46 47 48 47 47 47 48 48 48
58 58 59 60 59 59 58 57 57 57 56 56 55 55 55 54 54 54 53 53 52 51 49 50 49 45 44 44 43 41 39 39 39 35 35 33 32 24 24 28 20 23 26 25 20 22 28 26 26 34 34 32 32 27 25 26 25 31 33 29 31 32 33 34 37 38 38 38 38 39 40 40 40 40 42 43 44 45 46 46 46 47 47 47 47
57 58 58 59 58 58 58 57 56 55 54 54 54 54 54 53 53 52 51 50 50 49 48 47 45 45 44 40 38 38 37 38 36 38 34 35 26 25 26 27 29 21 22 22 27 19 24 19 23 32 32 30 26 24 26 25 25 31 32 29 29 31 31 32 34 35 37 38 37 37 38 38 40 40 40 42 43 43 44 46 46 46 46 46 47
58 58 57 57 57 56 55 54 53 52 52 52 52 52 53 52 50 49 48 48 47 46 44 44 43 43 42 39 38 37 36 35 36 37 36 35 32 28 29 20 17 23 19 16 18 22 17 19 25 24 30 27 24 25 25 24 27 32 31 27 28 32 30 31 33 35 36 36 36 36 37 37 37 39 39 39 41 41 43 43 45 45 45 45 44
58 57 56 57 55 55 52 52 52 51 51 51 52 51 51 49 48 47 45 45 43 43 42 43 42 42 40 39 36 36 37 36 37 36 35 35 33 34 32 28 17 9 16 17 18 19 22 19 22 31 26 22 25 24 27 27 27 31 29 27 27 28 30 31 33 35 36 35 35 36 36 37 38 38 38 38 38 38 39 39 39 39 38 38 38
57 55 54 54 54 51 51 51 51 51 51 51 50 49 48 47 46 45 42 42 41 40 39 39 39 39 39 40 36 36 36 36 36 36 36 34 35 32 34 25 26 20 12 11 15 18 21 25 20 20 28 25 24 26 25 26 28 28 26 26 27 27 29 31 33 34 34 34 35 35 36 36 37 37 37 37 37 37 37 37 37 37 38 39 39
54 54 52 52 52 48 50 49 49 49 48 48 48 47 47 46 44 41 40 40 39 38 39 38 38 37 37 35 34 33 34 34 33 34 34 33 32 33 29 30 29 23 19 17 15 20 19 18 18 21 22 24 25 27 27 26 30 27 26 26 26 26 29 30 31 32 32 33 34 34 35 36 37 37 36 36 36 37 37 37 37 38 39 40 41
53 51 50 49 48 48 48 47 47 46 46 46 46 45 43 41 39 37 38 38 37 36 37 37 36 35 34 34 33 31 32 32 32 32 32 31 32 28 29 31 28 30 25 23 17 17 20 20 19 21 22 24 25 25 28 27 28 27 25 25 25 28 30 27 28 30 31 32 33 34 35 37 37 36 36 36 36 36 37 37 37 38 37 38 38
51 50 49 48 47 46 45 45 45 45 44 43 44 40 39 38 37 37 37 37 36 35 34 34 36 34 33 32 31 30 30 29 29 30 29 30 30 28 30 28 29 28 28 26 22 20 21 22 22 23 24 24 25 25 25 26 27 28 24 24 24 28 24 23 28 29 30 31 32 33 34 35 35 35 35 35 36 37 37 37 37 37 36 37 37
50 49 48 47 46 45 44 43 43 43 42 40 39 38 37 36 36 36 37 36 34 32 32 33 35 33 31 31 30 31 31 29 28 28 28 28 28 28 28 28 27 28 27 26 23 22 23 25 25 24 24 25 24 24 24 24 24 24 25 24 24 24 24 24 24 27 28 30 31 32 33 34 32 33 34 34 34 35 36 37 36 34 36 35 35
49 49 46 46 45 44 44 42 41 41 39 38 37 36 35 35 36 37 35 34 32 32 31 31 32 34 31 29 29 29 30 30 29 28 28 27 28 27 27 28 26 28 28 27 24 24 22 23 23 23 24 25 23 24 23 23 23 24 23 23 23 23 24 24 24 25 28 29 31 32 32 32 32 32 33 32 33 34 35 37 36 35 33 34 35
46 46 45 44 43 42 41 41 41 39 37 36 36 35 34 34 33 34 34 32 31 30 29 29 30 31 30 29 28 30 32 29 29 28 29 29 28 28 28 27 27 28 28 27 26 24 24 23 24 23 22 23 23 22 24 24 24 24 22 22 22 25 25 24 23 25 27 29 31 32 31 31 31 31 32 32 33 34 35 35 36 35 34 34 35
44 42 42 43 42 42 41 40 38 37 36 35 34 33 33 32 31 31 32 32 31 30 29 29 29 29 28 27 28 29 29 28 27 26 27 28 27 27 28 28 27 28 27 27 27 25 23 23 22 22 23 21 21 22 24 23 21 21 21 22 23 23 23 24 23 24 26 29 30 30 29 29 30 31 32 33 33 33 34 34 34 34 33 33 33
43 41 41 41 42 41 39 37 36 35 34 33 32 32 33 32 31 31 30 30 30 29 29 30 30 29 28 27 27 28 27 26 26 26 27 28 27 27 27 26 26 26 26 26 25 24 23 22 22 22 22 21 22 21 21 20 20 20 21 21 21 21 22 23 24 25 27 28 27 27 27 28 29 29 31 32 32 32 33 33 33 32 32 32 32
41 41 41 41 40 39 37 36 34 33 32 31 31 30 30 31 31 30 30 30 29 29 28 28 28 28 27 27 27 27 26 26 26 27 27 27 27 26 26 25 25 25 24 24 24 23 23 22 21 20 20 20 19 19 20 20 20 19 19 20 21 21 22 22 22 24 24 24 23 23 25 25 26 28 30 30 31 31 32 31 31 31 30 30 32
41 40 40 39 38 36 35 33 32 32 31 31 31 30 30 30 30 29 29 28 28 27 27 27 27 27 27 27 27 27 27 27 27 27 27 27 27 26 25 25 25 24 23 22 22 22 21 20 20 20 19 20 19 17 19 20 20 20 19 20 20 20 22 23 22 23 24 23 24 25 23 24 26 25 27 28 30 30 30 30 29 28 28 30 33
40 39 39 38 35 33 32 31 31 30 30 30 31 30 30 30 29 29 28 27 27 27 26 26 26 26 26 26 26 26 26 26 27 27 27 26 26 25 25 25 25 24 22 22 21 21 20 20 20 19 19 18 18 17 19 18 19 20 21 21 20 20 21 22 21 21 22 21 21 20 22 23 23 24 25 26 28 28 27 27 26 26 28 32 34
38 38 36 32 31 31 30 30 29 30 31 31 31 30 30 29 29 29 28 27 26 25 25 24 24 24 25 25 24 24 26 26 26 27 26 26 27 24 25 25 24 23 23 22 23 21 21 20 20 20 18 17 17 17 18 18 19 19 21 21 21 22 22 21 21 20 22 20 19 19 20 21 21 21 21 22 22 24 23 26 25 27 30 34 36
35 32 30 30 29 29 28 28 29 31 31 32 30 31 31 29 29 30 29 26 25 24 23 22 22 23 24 24 24 26 26 25 26 26 26 26 26 26 25 25 25 24 25 24 24 23 23 22 21 19 19 20 17 17 19 19 20 21 20 21 21 21 20 19 20 21 21 19 18 18 19 21 21 21 22 22 22 23 22 22 22 27 30 34 37
31 30 29 28 28 28 28 28 28 31 31 31 31 32 32 32 29 27 27 26 25 23 21 21 20 20 21 21 22 24 25 25 24 25 25 26 25 25 26 25 25 24 24 24 23 23 22 22 22 21 19 18 18 18 18 21 21 21 20 21 21 19 19 18 17 19 20 18 18 18 18 21 21 20 21 22 23 22 21 21 28 30 32 35 36
30 28 27 26 27 27 28 28 28 29 29 31 32 32 32 32 30 27 27 26 25 23 20 20 20 20 19 19 20 22 21 22 22 23 24 25 25 25 25 24 23 23 24 24 24 23 23 21 20 20 18 18 19 20 20 20 21 21 22 21 20 19 19 19 17 16 17 19 18 18 18 20 21 21 21 21 22 22 22 25 29 31 33 35 36
26 26 25 25 25 27 27 28 28 28 28 32 33 33 32 31 30 27 25 25 23 22 20 19 19 18 19 18 19 20 23 25 24 22 22 23 25 24 23 21 21 22 23 23 22 22 21 21 21 20 19 18 19 20 22 21 22 21 20 19 19 20 19 17 15 15 16 19 18 17 16 18 20 20 20 21 21 22 22 24 29 31 33 34 36
25 25 25 26 26 27 28 28 28 28 28 32 33 32 32 31 29 27 24 22 21 20 19 19 19 18 18 18 18 19 21 22 22 22 23 22 23 22 20 20 20 20 20 19 19 20 20 21 21 21 20 20 20 21 22 22 21 20 19 19 20 19 17 16 16 16 17 18 17 17 16 17 20 20 19 20 21 21 21 24 28 30 32 34 35
27 27 27 28 27 29 29 30 29 28 28 32 33 32 31 30 29 26 22 22 20 19 19 19 18 18 18 18 18 19 20 21 23 24 23 22 23 23 22 22 20 17 16 16 17 19 21 22 21 20 21 21 21 20 21 20 20 20 20 19 18 17 16 17 16 17 16 18 18 17 15 18 20 18 19 20 21 20 20 23 26 28 31 33 34
25 26 26 28 30 31 30 31 29 28 29 32 32 32 32 30 28 24 22 20 20 19 19 19 18 18 17 18 18 19 20 21 25 26 25 23 24 22 22 22 19 18 18 19 21 23 22 21 20 19 20 20 22 21 20 20 19 19 18 17 16 15 14 13 12 14 15 17 17 17 17 17 19 18 18 19 19 18 19 21 24 27 30 32 33
26 25 27 28 29 30 31 31 30 29 29 31 31 31 31 30 26 24 24 23 21 19 18 19 18 17 17 18 19 19 20 21 25 26 25 24 23 23 21 18 18 19 20 22 21 21 20 19 19 20 20 21 21 21 22 21 18 18 15 13 13 13 12 11 11 12 13 15 17 19 17 15 17 18 17 17 17 18 19 20 20 25 29 31 32
26 26 27 27 29 30 31 31 31 30 30 30 31 31 31 28 26 25 24 23 22 21 19 18 18 17 18 22 21 19 20 22 26 25 25 25 23 22 19 18 18 18 20 21 19 17 16 16 16 17 17 17 18 18 17 17 17 17 13 11 13 12 11 11 11 11 13 15 16 18 16 15 17 18 15 15 16 16 17 18 20 22 25 27 29
25 25 26 27 28 29 30 31 30 30 30 30 31 31 29 28 25 25 24 23 22 21 20 19 17 17 19 22 22 21 21 24 25 24 24 23 23 21 18 19 18 19 20 18 15 13 13 12 12 12 12 13 12 10 10 14 15 14 11 12 12 11 11 11 12 12 11 12 16 18 15 15 16 16 14 12 12 14 16 17 18 19 22 23 23